📊 Raw Sensor Data
Showing records 36901 to 36925 of 84,904 total
| ID | Distance (ft) | Battery V | Battery A | Int Temp (°F) | Int Humid (%) | Ext Temp (°F) | Solar V | RSSI | SNR | Time Stamp |
|---|---|---|---|---|---|---|---|---|---|---|
| 48016 | 15.4 | 3.88 | -5 | 56 | 45 | 57 | 0.00 | -68 | 8 | 08/02/2025 01:30 AM |
| 48015 | 15.5 | 3.88 | -5 | 56 | 45 | 58 | 0.00 | -68 | 6 | 08/02/2025 01:15 AM |
| 48014 | 15.5 | 3.88 | -5 | 56 | 45 | 57 | 0.00 | -69 | 8 | 08/02/2025 01:00 AM |
| 48013 | 15.5 | 3.88 | -5 | 57 | 45 | 57 | 0.10 | -68 | 8 | 08/02/2025 12:45 AM |
| 48012 | 15.5 | 3.88 | -5 | 57 | 45 | 58 | 0.00 | -68 | 7 | 08/02/2025 12:30 AM |
| 48011 | 15.5 | 3.88 | -5 | 57 | 45 | 59 | 0.00 | -69 | 8 | 08/02/2025 12:15 AM |
| 48010 | 15.5 | 3.94 | -5 | 58 | 46 | 59 | 0.00 | -68 | 8 | 08/02/2025 12:00 AM |
| 48009 | 15.5 | 3.94 | -5 | 58 | 46 | 59 | 0.00 | -69 | 8 | 08/01/2025 11:45 PM |
| 48008 | 15.5 | 3.94 | -5 | 59 | 46 | 60 | 0.00 | -69 | 8 | 08/01/2025 11:30 PM |
| 48007 | 15.5 | 3.94 | -5 | 59 | 46 | 61 | 0.00 | -69 | 8 | 08/01/2025 11:15 PM |
| 48006 | 15.5 | 3.88 | -5 | 60 | 47 | 61 | 0.00 | -69 | 8 | 08/01/2025 11:00 PM |
| 48005 | 15.5 | 3.84 | -5 | 60 | 47 | 61 | 0.00 | -68 | 8 | 08/01/2025 10:45 PM |
| 48004 | 15.5 | 3.83 | -5 | 61 | 48 | 62 | 0.00 | -69 | 8 | 08/01/2025 10:30 PM |
| 48003 | 15.5 | 3.86 | -5 | 62 | 48 | 62 | 0.10 | -71 | 8 | 08/01/2025 10:15 PM |
| 48002 | 15.5 | 3.86 | -5 | 63 | 49 | 63 | 0.00 | -69 | 8 | 08/01/2025 10:00 PM |
| 48001 | 15.5 | 3.77 | -5 | 64 | 50 | 64 | 0.00 | -68 | 7 | 08/01/2025 09:45 PM |
| 48000 | 15.5 | 3.87 | -5 | 65 | 51 | 65 | 0.00 | -69 | 8 | 08/01/2025 09:30 PM |
| 47999 | 15.5 | 3.85 | -5 | 67 | 52 | 66 | 0.00 | -68 | 8 | 08/01/2025 09:15 PM |
| 47998 | 15.5 | 3.87 | -5 | 68 | 53 | 68 | 0.10 | -71 | 7 | 08/01/2025 09:00 PM |
| 47997 | 15.5 | 3.95 | -5 | 70 | 55 | 69 | 0.10 | -70 | 8 | 08/01/2025 08:45 PM |
| 47996 | 15.5 | 3.87 | -5 | 72 | 56 | 70 | 1.70 | -70 | 7 | 08/01/2025 08:30 PM |
| 47995 | 15.5 | 3.80 | -10 | 76 | 57 | 72 | 3.10 | -69 | 8 | 08/01/2025 08:15 PM |
| 47994 | 15.6 | 3.96 | 0 | 82 | 55 | 77 | 4.50 | -68 | 7 | 08/01/2025 08:00 PM |
| 47993 | 15.6 | 3.98 | 0 | 86 | 54 | 80 | 4.60 | -70 | 7 | 08/01/2025 07:45 PM |
| 47992 | 15.6 | 3.98 | 5 | 89 | 54 | 82 | 4.50 | -69 | 7 | 08/01/2025 07:30 PM |